Location: Kelshall
(52.0000°N, 0.0500°W)
Time: 12:10:17
(UTC+00:00)

Okean 1 Rocket - Pass Details

Date: 16 January 2021
Orbit: 605 x 635 km, 82.5° (Epoch: 05 March)

Event Time Altitude Azimuth Distance (km) Brightness Sun altitude
Exits shadow 06:33:29 18° 268° (W) 1,588 4.6 -12.8°
Maximum altitude 06:35:02 21° 296° (WNW) 1,449 4.3 -12.6°
Drops below altitude 10° 06:38:26 10° 345° (NNW) 2,031 5.4 -12.1°
Sets 06:41:12 0° 2° (N) 2,941 6.4 -11.7°
